TimeMDT,TemperatureF,Dew PointF,Humidity,Sea Level PressureIn,VisibilityMPH,Wind Direction,Wind SpeedMPH,Gust SpeedMPH,PrecipitationIn,Events,Conditions,WindDirDegrees,DateUTC
12:15 AM,63.0,55.8,77,30.00,7.0,East,3.5,-,N/A,Thunderstorm,Scattered Clouds,90,2013-09-14 06:15:00
12:35 AM,63.3,55.2,75,30.01,7.0,East,6.9,-,N/A,Thunderstorm,Mostly Cloudy,90,2013-09-14 06:35:00
12:55 AM,63.7,55.0,73,30.01,7.0,Calm,Calm,-,N/A,Thunderstorm,Overcast,0,2013-09-14 06:55:00
1:15 AM,64.0,57.7,80,30.01,7.0,Calm,Calm,-,N/A,Thunderstorm,Mostly Cloudy,0,2013-09-14 07:15:00
1:35 AM,64.9,57.0,75,30.01,7.0,Calm,Calm,-,N/A,Thunderstorm,Mostly Cloudy,0,2013-09-14 07:35:00
1:55 AM,64.9,55.0,70,30.00,10.0,Calm,Calm,-,N/A,,Scattered Clouds,0,2013-09-14 07:55:00
2:15 AM,63.5,55.6,75,30.00,7.0,North,4.6,-,N/A,,Overcast,10,2013-09-14 08:15:00
2:35 AM,63.7,55.9,76,30.01,7.0,North,4.6,-,N/A,Thunderstorm,Thunderstorm,360,2013-09-14 08:35:00
2:55 AM,63.1,56.3,78,30.00,7.0,North,4.6,-,N/A,Thunderstorm,Mostly Cloudy,10,2013-09-14 08:55:00
3:15 AM,63.1,56.8,80,30.00,10.0,North,4.6,-,N/A,Thunderstorm,Thunderstorm,360,2013-09-14 09:15:00
3:35 AM,62.4,55.9,79,30.00,10.0,South,4.6,-,N/A,Thunderstorm,Thunderstorm,190,2013-09-14 09:35:00
3:55 AM,61.2,56.3,84,30.01,7.0,Calm,Calm,-,N/A,Thunderstorm,Thunderstorm,0,2013-09-14 09:55:00
4:15 AM,61.7,56.8,84,30.01,7.0,Calm,Calm,-,N/A,,Overcast,0,2013-09-14 10:15:00
4:35 AM,61.7,57.2,85,30.01,7.0,Calm,Calm,-,N/A,Thunderstorm,Overcast,0,2013-09-14 10:35:00
4:55 AM,61.7,57.2,85,30.01,7.0,South,3.5,-,N/A,Thunderstorm,Overcast,190,2013-09-14 10:55:00
5:15 AM,61.2,57.2,87,30.02,7.0,SSE,3.5,-,N/A,Thunderstorm,Thunderstorm,150,2013-09-14 11:15:00
5:35 AM,61.3,57.0,86,30.03,2.5,WSW,13.8,26.5,0.01,Thunderstorm,Thunderstorm,240,2013-09-14 11:35:00
5:55 AM,60.6,55.0,82,30.03,5.0,WNW,8.1,-,0.09,Thunderstorm,Thunderstorm,300,2013-09-14 11:55:00
6:15 AM,61.7,54.3,77,30.04,5.0,WNW,8.1,-,0.01,Thunderstorm,Thunderstorm,290,2013-09-14 12:15:00
6:35 AM,60.4,55.4,83,30.04,5.0,Calm,Calm,-,0.02,Thunderstorm,Overcast,0,2013-09-14 12:35:00
6:55 AM,59.9,56.3,88,30.05,7.0,ESE,5.8,-,0.03,,Overcast,110,2013-09-14 12:55:00
7:15 AM,59.4,56.8,91,30.06,2.5,SE,3.5,-,N/A,,Overcast,140,2013-09-14 13:15:00
7:35 AM,58.5,56.7,94,30.07,3.0,ESE,4.6,-,0.01,,Overcast,120,2013-09-14 13:35:00
7:55 AM,59.0,56.5,91,30.07,5.0,SE,6.9,-,0.01,,Overcast,130,2013-09-14 13:55:00
8:15 AM,58.5,56.3,93,30.08,2.0,ESE,5.8,-,0.02,,Overcast,110,2013-09-14 14:15:00
8:35 AM,58.5,56.7,94,30.09,4.0,East,4.6,-,0.03,Thunderstorm,Overcast,80,2013-09-14 14:35:00
8:55 AM,58.5,56.5,93,30.09,2.0,NNE,6.9,-,0.05,Thunderstorm,Overcast,30,2013-09-14 14:55:00
9:15 AM,58.6,56.5,93,30.08,4.0,NE,6.9,-,0.01,,Scattered Clouds,40,2013-09-14 15:15:00
9:35 AM,59.9,57.0,90,30.09,5.0,East,4.6,-,0.02,,Scattered Clouds,80,2013-09-14 15:35:00
9:55 AM,60.6,57.4,89,30.10,5.0,East,5.8,-,0.02,,Mostly Cloudy,80,2013-09-14 15:55:00
10:15 AM,60.4,57.2,89,30.11,5.0,East,9.2,-,N/A,,Mostly Cloudy,100,2013-09-14 16:15:00
10:35 AM,60.3,57.2,90,30.11,4.0,East,4.6,-,N/A,Thunderstorm,Overcast,100,2013-09-14 16:35:00
10:55 AM,60.8,58.1,91,30.11,4.0,East,4.6,-,0.01,,Mostly Cloudy,90,2013-09-14 16:55:00
11:15 AM,61.3,57.7,88,30.09,5.0,ENE,10.4,-,N/A,,Mostly Cloudy,70,2013-09-14 17:15:00
11:35 AM,61.0,56.8,86,30.08,7.0,NE,13.8,-,N/A,Thunderstorm,Overcast,50,2013-09-14 17:35:00
11:55 AM,62.6,55.6,78,30.10,7.0,ENE,6.9,-,0.01,,Scattered Clouds,70,2013-09-14 17:55:00
12:15 PM,64.0,55.8,74,30.10,7.0,ENE,6.9,-,N/A,,Mostly Cloudy,70,2013-09-14 18:15:00
12:35 PM,65.3,56.3,73,30.10,7.0,East,10.4,-,N/A,,Overcast,90,2013-09-14 18:35:00
12:55 PM,65.8,56.3,71,30.09,5.0,ENE,8.1,-,N/A,,Overcast,70,2013-09-14 18:55:00
1:15 PM,68.0,56.5,67,30.08,7.0,East,10.4,-,N/A,,Scattered Clouds,90,2013-09-14 19:15:00
1:35 PM,68.4,55.0,62,30.08,7.0,ENE,8.1,-,N/A,,Scattered Clouds,70,2013-09-14 19:35:00
1:55 PM,70.0,53.8,56,30.06,4.0,East,5.8,-,N/A,,Mostly Cloudy,90,2013-09-14 19:55:00
2:15 PM,70.5,52.9,54,30.05,7.0,NE,6.9,-,N/A,,Scattered Clouds,50,2013-09-14 20:15:00
2:35 PM,71.2,53.4,53,30.03,7.0,ENE,9.2,-,N/A,,Clear,70,2013-09-14 20:35:00
2:55 PM,71.8,50.7,47,30.03,5.0,ENE,8.1,-,N/A,,Clear,70,2013-09-14 20:55:00
3:15 PM,72.3,51.1,47,30.02,7.0,Calm,Calm,-,N/A,,Clear,0,2013-09-14 21:15:00
3:35 PM,71.2,51.8,50,30.02,7.0,East,3.5,-,N/A,,Clear,90,2013-09-14 21:35:00
3:55 PM,72.7,51.1,47,30.00,7.0,ENE,5.8,-,N/A,,Clear,60,2013-09-14 21:55:00
4:15 PM,73.6,49.6,43,30.01,7.0,East,4.6,-,N/A,,Clear,100,2013-09-14 22:15:00
4:35 PM,72.0,50.0,46,30.00,5.0,ENE,4.6,-,N/A,,Clear,70,2013-09-14 22:35:00
4:55 PM,71.6,50.2,47,30.00,5.0,Calm,Calm,-,N/A,,Clear,0,2013-09-14 22:55:00
5:15 PM,71.6,49.1,45,30.00,7.0,Calm,Calm,-,N/A,,Clear,0,2013-09-14 23:15:00
5:35 PM,71.6,48.7,44,29.99,7.0,Calm,Calm,-,N/A,,Clear,0,2013-09-14 23:35:00
5:55 PM,71.4,49.5,46,29.98,4.0,Calm,Calm,-,N/A,Thunderstorm,Thunderstorm,0,2013-09-14 23:55:00
6:15 PM,71.1,53.6,54,29.99,7.0,SSW,5.8,-,N/A,,Clear,210,2013-09-15 00:15:00
6:35 PM,69.3,55.6,62,30.00,7.0,SW,8.1,-,N/A,,Scattered Clouds,220,2013-09-15 00:35:00
6:55 PM,68.0,55.6,64,30.01,7.0,WSW,8.1,-,N/A,,Mostly Cloudy,240,2013-09-15 00:55:00
7:15 PM,68.0,54.9,63,30.01,7.0,West,6.9,-,N/A,,Overcast,280,2013-09-15 01:15:00
7:35 PM,68.0,54.0,61,30.01,7.0,WNW,8.1,-,N/A,,Overcast,290,2013-09-15 01:35:00
7:55 PM,67.3,54.5,63,30.02,7.0,WSW,5.8,-,N/A,,Overcast,250,2013-09-15 01:55:00
8:15 PM,67.1,55.4,66,30.03,7.0,WSW,4.6,-,N/A,,Mostly Cloudy,240,2013-09-15 02:15:00
8:35 PM,65.8,56.5,72,30.04,10.0,Calm,Calm,-,N/A,,Mostly Cloudy,0,2013-09-15 02:35:00
8:55 PM,66.2,54.3,65,30.05,10.0,South,8.1,-,N/A,,Overcast,190,2013-09-15 02:55:00
9:15 PM,64.9,53.6,67,30.06,7.0,Calm,Calm,-,N/A,,Overcast,0,2013-09-15 03:15:00
9:35 PM,64.6,53.4,67,30.07,7.0,South,3.5,-,N/A,,Overcast,170,2013-09-15 03:35:00
9:55 PM,63.0,53.4,71,30.08,7.0,ESE,3.5,-,N/A,,Overcast,120,2013-09-15 03:55:00
10:15 PM,62.1,53.1,72,30.09,7.0,Calm,Calm,-,N/A,,Overcast,0,2013-09-15 04:15:00
10:35 PM,61.9,53.6,74,30.09,7.0,WNW,3.5,-,N/A,,Overcast,300,2013-09-15 04:35:00
10:55 PM,61.3,54.5,78,30.09,7.0,WNW,5.8,-,N/A,,Mostly Cloudy,290,2013-09-15 04:55:00
11:15 PM,61.2,54.5,79,30.09,5.0,West,3.5,-,N/A,,Scattered Clouds,270,2013-09-15 05:15:00
11:35 PM,60.8,54.3,79,30.09,7.0,Calm,Calm,-,N/A,,Clear,0,2013-09-15 05:35:00
11:55 PM,60.4,55.4,83,30.09,7.0,East,3.5,-,N/A,,Scattered Clouds,90,2013-09-15 05:55:00